Flag for U.S.A. Weather past 2 weeks in Santa Barbara, California, U.S.A.

Now
54 °F

Clear.


Feels Like: 54 °F
Forecast: 54 / 72 °F
Wind: 3 mph from Northeast

Location: Santa Barbara Municipal Airport


UV Index: 5 (Moderate)

Visibility: 10 mi


Pressure: 30.03 "Hg

Humidity: 83%

Dew point: 49 °F

Location of Santa BarbaraLocation

Historic Weather in Santa Barbara

°F

Santa Barbara temperature yesterday

Maximum temperature yesterday: 66 °F (at 11:53 AM)
Minimum temperature yesterday: 52 °F (at 5:53 AM)
Average temperature yesterday: 59 °F

Past Weeks' High & Low Weather Summary

 TemperatureHumidityPressure
High79 °F (Apr 7, 2:53 PM)100% (Apr 9, 8:02 AM)30.11 "Hg (Apr 9, 8:02 AM)
Low44 °F (Apr 13, 6:53 AM)22% (Apr 5, 3:53 PM)29.78 "Hg (Apr 16, 5:53 PM)
Average59 °F74%29.96 "Hg
* Reported Apr 5 4:53 AM — Apr 20 4:53 AM, Santa Barbara, Weather by CustomWeather, © 2014

Note: Actual official high and low records may vary slightly from our data, if they occured in-between our weather recording intervals... More about our weather records

Advertising

Historic Weather Conditions — Data for Previous 24 hours

 ConditionsComfort  
Time TempWeatherWind HumidityBarometerVisibility
4:53 AM
Apr 20
54 °FClear.3 mph83%30.01 "Hg10 mi
3:53 AM57 °FClear.6 mph81%30.01 "Hg10 mi
2:53 AM58 °FClear.3 mph78%30.01 "Hg10 mi
1:53 AM59 °FClear.6 mph75%30.02 "Hg10 mi
12:53 AM58 °FClear.5 mph81%30.02 "Hg10 mi
11:53 PM
Apr 19
57 °FClear.3 mph83%30.00 "Hg10 mi
10:53 PM57 °FClear.3 mph83%30.00 "Hg10 mi
9:53 PM58 °FClear.No wind84%29.98 "Hg9 mi
8:53 PM58 °FClear.5 mph84%29.97 "Hg10 mi
7:53 PM60 °FSunny.No wind75%29.96 "Hg10 mi
6:53 PM61 °FSunny.7 mph72%29.96 "Hg10 mi
5:53 PM61 °FSunny.6 mph75%29.96 "Hg10 mi
4:53 PM66 °FSunny.9 mph65%29.97 "Hg10 mi
3:53 PM66 °FSunny.7 mph65%29.98 "Hg10 mi
2:53 PM65 °FSunny.5 mph61%29.99 "Hg10 mi
1:53 PM66 °FSunny.7 mph61%30.00 "Hg10 mi
12:53 PM64 °FSunny.6 mph68%30.01 "Hg10 mi
11:53 AM66 °FSunny.6 mph63%30.01 "Hg10 mi
10:53 AM64 °FSunny.5 mph70%30.01 "Hg10 mi
9:53 AM61 °FSunny.6 mph78%30.00 "Hg10 mi
8:53 AM61 °FSunny.No wind75%29.99 "Hg10 mi
7:53 AM58 °FSunny.No wind81%29.98 "Hg9 mi
6:53 AM52 °FClear.No wind86%29.97 "Hg9 mi
Weather by CustomWeather, © 2014

See weather overview